EW4927 Weather Reports


time (UTC)temp
F
wind
direction
speed
knots
gust
knots
rain 1hr
in
rain 24hr
in
rain mn
in
humidity
%
barometer
mb
20260505214643 48 0 0.0 0.0 0.00 0.00 0.00 81 1014.7
20260505213641 49 0 0.0 0.0 0.00 0.00 0.00 80 1014.7
20260505211640 49 0 0.0 0.0 0.00 0.00 0.00 80 1014.7
20260505205641 49 0 0.0 0.0 0.00 0.00 0.00 81 1014.7
20260505204639 49 0 0.0 0.0 0.00 0.00 0.00 82 1014.7
20260505203638 49 0 0.0 0.0 0.00 0.00 0.00 81 1014.6
20260505202637 49 0 0.0 0.0 0.00 0.00 0.00 81 1014.6
20260505201638 49 0 0.0 0.0 0.00 0.00 0.00 81 1014.6
20260505200636 50 0 0.0 0.0 0.00 0.00 0.00 80 1014.6
20260505195637 50 0 0.0 0.0 0.00 0.00 0.00 79 1014.5
20260505194635 50 0 0.0 0.0 0.00 0.00 0.00 79 1014.5
20260505193637 50 0 0.0 0.0 0.00 0.00 0.00 79 1014.4
20260505192634 50 0 0.0 0.0 0.00 0.00 0.00 78 1014.4
20260505190633 50 0 0.0 0.0 0.00 0.00 0.00 78 1014.3
20260505185634 50 0 0.0 0.0 0.00 0.00 0.00 78 1014.3
20260505184631 51 0 0.0 0.0 0.00 0.00 0.00 78 1014.2
20260505183631 51 0 0.0 0.0 0.00 0.00 0.00 78 1014.3
20260505182630 51 0 0.0 0.0 0.00 0.00 0.00 78 1014.3
20260505181629 51 0 0.0 0.0 0.00 0.00 0.00 78 1014.3
20260505175629 51 0 0.0 0.0 0.00 0.00 0.00 76 1014.3
20260505174628 52 0 0.0 0.0 0.00 0.00 0.00 76 1014.3
20260505172626 53 0 0.0 0.0 0.00 0.00 0.00 77 1014.2
20260505171627 53 0 0.0 0.0 0.00 0.00 0.00 76 1014.3
20260505170625 53 0 0.0 0.0 0.00 0.00 0.00 74 1014.4
20260505165625 53 0 0.0 0.0 0.00 0.00 0.00 73 1014.3
20260505164624 53 0 0.0 0.0 0.00 0.00 0.00 73 1014.4
20260505162624 53 0 0.0 0.0 0.00 0.00 0.00 73 1014.4
20260505161623 53 0 0.0 0.0 0.00 0.00 0.00 72 1014.4
20260505160622 54 0 0.0 0.0 0.00 0.00 0.00 71 1014.5
20260505152621 54 0 0.0 0.0 0.00 0.00 0.00 69 1014.6
20260505150618 56 0 0.0 0.0 0.00 0.00 0.00 66 1014.6
20260505140615 55 0 0.0 0.0 0.00 0.00 0.00 66 1014.7
20260505124611 59 0 0.0 0.0 0.00 0.00 0.00 58 1014.6
20260505123609 57 0 0.0 0.0 0.00 0.00 0.00 57 1014.8
20260505122610 56 0 0.0 0.0 0.00 0.00 0.00 57 1014.8
20260505121609 56 0 0.0 0.0 0.00 0.00 0.00 57 1014.9
20260505120607 56 0 0.0 0.0 0.00 0.00 0.00 60 1015.0
20260505115606 55 0 0.0 0.0 0.00 0.00 0.00 59 1015.0
20260505114607 56 0 0.0 0.0 0.00 0.00 0.00 60 1015.0
20260505113607 56 0 0.0 0.0 0.00 0.00 0.00 63 1015.0
20260505112607 57 0 0.0 0.0 0.00 0.00 0.00 62 1015.1
20260505111604 57 0 0.0 0.0 0.00 0.00 0.00 63 1015.1
20260505101603 55 0 0.0 0.0 0.00 0.00 0.00 65 1015.3
20260505100601 56 0 0.0 0.0 0.00 0.00 0.00 63 1015.2
20260505094601 56 0 0.0 0.0 0.00 0.00 0.00 60 1015.1
20260505093600 58 0 0.0 0.0 0.00 0.00 0.00 60 1015.1
20260505092558 57 0 0.0 0.0 0.00 0.00 0.00 60 1015.2
20260505091557 56 0 0.0 0.0 0.00 0.00 0.00 59 1015.3
20260505090557 58 0 0.0 0.0 0.00 0.00 0.00 58 1015.3
20260505085559 57 0 0.0 0.0 0.00 0.00 0.00 63 1015.3
20260505084557 56 0 0.0 0.0 0.00 0.00 0.00 59 1015.3
20260505082555 58 0 0.0 0.0 0.00 0.00 0.00 60 1015.4
20260505081555 58 0 0.0 0.0 0.00 0.00 0.00 64 1015.3
20260505075555 57 0 0.0 0.0 0.00 0.00 0.00 68 1015.4
20260505073554 55 0 0.0 0.0 0.00 0.00 0.00 78 1015.4
20260505072551 53 0 0.0 0.0 0.00 0.00 0.00 78 1015.5
20260505071550 52 0 0.0 0.0 0.00 0.00 0.00 88 1015.5
20260505070551 49 0 0.0 0.0 0.00 0.00 0.00 92 1015.5
20260505065549 47 0 0.0 0.0 0.00 0.00 0.00 96 1015.5
20260505064548 46 0 0.0 0.0 0.00 0.00 0.00 96 1015.6
20260505063548 46 0 0.0 0.0 0.00 0.00 0.00 96 1015.7
20260505062547 46 0 0.0 0.0 0.00 0.00 0.00 96 1015.6
20260505061547 47 0 0.0 0.0 0.00 0.00 0.00 96 1015.5
20260505055546 47 0 0.0 0.0 0.00 0.00 0.00 97 1015.4
20260505054545 47 0 0.0 0.0 0.00 0.00 0.00 96 1015.4
20260505053545 47 0 0.0 0.0 0.00 0.00 0.00 96 1015.4
20260505051544 47 0 0.0 0.0 0.00 0.00 0.00 97 1015.1
20260505050544 47 0 0.0 0.0 0.00 0.00 0.00 97 1015.2
20260505041540 47 0 0.0 0.0 0.00 0.00 0.00 97 1015.0
20260505040541 47 0 0.0 0.0 0.00 0.00 0.00 96 1015.0
20260504224543 49 0 0.0 0.0 0.00 0.00 0.00 94 1015.6
20260504223543 48 0 0.0 0.0 0.00 0.00 0.00 94 1015.6
20260504222542 48 0 0.0 0.0 0.00 0.00 0.00 93 1015.6
20260504221541 49 0 0.0 0.0 0.00 0.00 0.00 93 1015.6
20260504220541 49 0 0.0 0.0 0.00 0.00 0.00 93 1015.7
20260504215645 49 0 0.0 0.0 0.00 0.00 0.00 93 1015.7